Content
SEND FEEDBACK

Daily
Averages
Monthly
Summary
United States of America

BROOKLYN, NEW YORK


Home > North America > United States > New York
Elevation: 2 feet     Latitude: 40 36N     Longitude: 073 59W

WEATHER
 
SELECT A DAY
Number of Records: 187,543;   Date Range: 1/1/95 - 9/29/14
 
SHARE

PRINT THIS DATA

[ ← Previous Day ]
WEATHER ALMANAC - FEBRUARY 8, 2013
[ Next Day → ]
[ °C ]   °F
Weather ElementAverageHighLow
Temperature33.1 °F36 °F (1:51 am)27 °F (11:51 pm)
Dewpoint29.2 °F33.8 °F (10:36 am)25 °F (11:51 pm)
Humidity85.8 %93 % (9:04 am)70 % (1:51 am)
Barometer29.87 in30.29 in (1:51 am)29.62 in (7:48 pm)
Wind Speed20.5 mph28.8 mph (1:51 pm)
Wind Gust39.1 mph (1:51 pm)
Weather ElementAverage
Visibility4.5 mi
Wind DirectionESE (116.8 °)

Weather ElementTotal
Precipitation1.17 in
Heating Degree Days33.5 (Base 65)
Averaged from 38 records on February 8, 2013
WEATHER CONDITIONS BREAKOUT
WIND DIRECTION BREAKOUT
WEATHER BY HOUR - FEBRUARY 8, 2013
[ °C ]   °F
Local TimeTemperatureDewpointHumidityBarometerVisibilityWind DirectionWind SpeedGust SpeedPrecipitationEventsConditions
1:51 AM36.0 °F27.0 °F70 %30.29 in10.0 miEast (90°)18.4 mphOvercast
2:51 AM36.0 °F27.0 °F70 %30.26 in10.0 miEast (80°)15.0 mph24.2 mphOvercast
3:51 AM35.1 °F27.0 °F72 %30.22 in10.0 miENE (70°)16.1 mphOvercast
4:51 AM35.1 °F26.1 °F70 %30.19 in10.0 miENE (60°)13.8 mphOvercast
5:51 AM34.0 °F26.1 °F73 %30.17 in10.0 miNE (40°)15.0 mphOvercast
6:40 AM33.8 °F28.4 °F81 %30.15 in2.5 miNE (50°)17.3 mph0.01 inSnowLight Snow
6:48 AM33.8 °F28.4 °F81 %30.14 in2.5 miNE (50°)13.8 mph0.01 inSnowLight Snow
6:51 AM33.1 °F28.9 °F85 %30.14 in2.0 miNE (50°)15.0 mph0.01 inSnowLight Snow
7:29 AM33.8 °F30.2 °F87 %30.13 in2.0 miNE (50°)15.0 mph0.01 inRain-SnowLight Snow
7:51 AM33.1 °F30.9 °F92 %30.12 in2.0 miENE (60°)13.8 mph21.9 mph0.02 inRain-SnowLight Snow
8:51 AM34.0 °F32.0 °F92 %30.09 in3.0 miENE (60°)18.4 mph0.02 inRain-SnowLight Rain
9:04 AM33.8 °F32.0 °F93 %30.08 in3.0 miENE (60°)18.4 mph0.01 inRainLight Rain
9:51 AM35.1 °F32.0 °F89 %30.04 in6.0 miENE (60°)20.7 mph25.3 mph0.03 inRainLight Rain
10:36 AM35.6 °F33.8 °F93 %30.00 in7.0 miENE (60°)20.7 mph0.03 inRainLight Rain
10:51 AM36.0 °F33.1 °F89 %29.98 in7.0 miNE (50°)21.9 mph28.8 mph0.04 inRainLight Rain
11:51 AM36.0 °F32.0 °F86 %29.92 in6.0 miNE (50°)23.0 mph29.9 mph0.04 inRainRain
12:51 PM35.1 °F32.0 °F89 %29.84 in5.0 miNE (50°)23.0 mph28.8 mph0.08 inRainRain
1:51 PM35.1 °F32.0 °F89 %29.77 in7.0 miNNE (30°)28.8 mph39.1 mph0.07 inRainLight Rain
2:21 PM33.8 °F30.2 °F87 %29.75 in7.0 miNE (40°)28.8 mph34.5 mph0.02 inRainLight Ice Pellets
2:51 PM34.0 °F30.9 °F89 %29.72 in7.0 miNE (40°)27.6 mph36.8 mph0.05 inRainLight Ice Pellets
3:40 PM33.8 °F30.2 °F87 %29.70 in7.0 miNE (40°)26.5 mph34.5 mph0.05 inRainLight Ice Pellets
3:51 PM34.0 °F30.0 °F85 %29.70 in7.0 miNE (40°)26.5 mph35.7 mph0.06 inRainLight Ice Pellets
4:13 PM33.8 °F30.2 °F87 %29.70 in6.0 miNNE (30°)26.5 mph32.2 mph0.02 inSnowLight Ice Pellets
4:51 PM33.1 °F30.0 °F89 %29.68 in5.0 miNNE (30°)23.0 mph31.1 mph0.05 inSnowLight Snow
5:06 PM33.8 °F30.2 °F87 %29.67 in1.5 miNNE (30°)20.7 mph31.1 mph0.03 inSnowLight Snow
5:45 PM33.8 °F30.2 °F87 %29.64 in3.0 miNNE (30°)25.3 mph33.4 mph0.07 inSnowLight Snow
5:51 PM33.1 °F30.0 °F89 %29.65 in3.0 miNNE (30°)24.2 mph34.5 mph0.07 inSnowLight Snow
6:51 PM32.0 °F28.9 °F88 %29.63 in3.0 miNorth (360°)18.4 mph29.9 mph0.05 inSnowLight Snow
7:48 PM30.2 °F28.4 °F93 %29.62 in3.0 miNNE (20°)24.2 mph33.4 mph0.03 inSnowLight Snow
7:51 PM30.9 °F28.0 °F89 %29.62 in3.0 miNorth (10°)20.7 mph32.2 mph0.03 inOvercast
8:12 PM30.2 °F26.6 °F86 %29.62 in3.0 miNorth (360°)23.0 mph32.2 mph0.00 inSnowLight Snow
8:51 PM30.0 °F27.0 °F88 %29.62 in3.0 miNorth (360°)23.0 mph38.0 mph0.01 inSnowLight Snow
9:51 PM30.9 °F27.0 °F85 %29.65 in3.0 miNNW (330°)19.6 mph29.9 mph0.00 inSnowLight Snow
10:15 PM30.2 °F26.6 °F86 %29.68 in0.5 miNNW (330°)18.4 mph0.02 inSnowLight Snow
10:31 PM30.2 °F26.6 °F86 %29.69 in0.5 miNNW (330°)16.1 mph0.04 inSnowLight Snow
10:51 PM30.0 °F27.0 °F88 %29.70 in0.5 miNNW (330°)18.4 mph0.08 inFog-SnowSnow
11:23 PM28.4 °F26.6 °F93 %29.72 in0.5 miNNW (340°)19.6 mph0.04 inFog-SnowSnow
11:51 PM27.0 °F25.0 °F92 %29.73 in0.5 miNNW (340°)19.6 mph31.1 mph0.07 inFog-SnowSnow
Hourly data recorded from KJFK, located miles away from Brooklyn, New York







STORIES FROM OUR PARTNERS